Location: Hartman Creek State Park
(44.3257°N, 89.2134°W)
Time: 00:38:47
(UTC-06:00)

Cosmos 2263 Rocket - Visible Passes

Search period start: 22 February 2018 00:00
Search period end: 04 March 2018 00:00
Orbit: 824 x 848 km, 71.0° (Epoch: 20 February)

Date Brightness Start Highest point End Pass type
(mag) Time Alt. Az. Time Alt. Az. Time Alt. Az.
22 Feb 5.2 03:31:21 10° NE 03:31:30 10° NE 03:31:40 10° NE visible
22 Feb 3.3 05:11:31 10° NNW 05:16:58 46° ENE 05:22:24 10° SE visible
22 Feb 3.8 20:03:07 10° SSW 20:04:56 21° S 20:04:56 21° S visible
23 Feb 3.4 04:54:49 10° NNW 05:00:12 43° ENE 05:05:35 10° SE visible
23 Feb 2.3 19:46:27 10° S 19:51:05 54° SSE 19:51:05 54° SSE visible
23 Feb 4.7 21:31:50 10° WSW 21:32:57 15° W 21:32:57 15° W visible
24 Feb 3.5 04:38:07 10° NNW 04:43:27 40° ENE 04:48:45 10° SE visible
24 Feb 2.1 19:29:46 10° S 19:35:11 56° ESE 19:37:35 32° NE visible
24 Feb 4.1 21:14:54 10° WSW 21:19:29 25° NW 21:19:31 25° NW visible
25 Feb 3.6 04:21:26 10° NNW 04:26:41 37° NE 04:31:54 10° ESE visible
25 Feb 2.8 06:05:26 10° NW 06:10:34 36° WSW 06:15:42 10° S visible
25 Feb 2.2 19:13:06 10° S 19:18:29 52° ESE 19:23:54 10° NE visible
25 Feb 4.0 20:58:00 10° WSW 21:02:41 27° NW 21:06:39 13° N visible
26 Feb 3.7 04:04:45 10° N 04:09:54 34° NE 04:15:03 10° ESE visible
26 Feb 2.7 05:48:38 10° NW 05:53:52 39° WSW 05:59:06 10° S visible
26 Feb 2.4 18:56:28 10° S 19:01:46 47° ESE 19:07:07 10° NE visible
26 Feb 3.9 20:41:06 10° WSW 20:45:54 29° NW 20:50:46 10° N visible
27 Feb 3.8 03:48:04 10° N 03:53:08 32° NE 03:58:11 10° ESE visible
27 Feb 2.5 05:31:50 10° NW 05:37:10 43° WSW 05:42:29 10° S visible
27 Feb 2.5 18:39:50 10° S 18:45:03 44° ESE 18:50:21 10° NE visible
27 Feb 3.9 20:24:12 10° WSW 20:29:07 31° NW 20:34:06 10° N visible
28 Feb 3.9 03:31:23 10° N 03:36:21 30° NE 03:41:18 10° ESE visible
28 Feb 2.4 05:15:04 10° NW 05:20:28 47° WSW 05:25:52 10° S visible
28 Feb 2.6 18:23:12 10° S 18:28:21 40° ESE 18:33:33 10° NE visible
28 Feb 3.8 20:07:20 10° WSW 20:12:20 33° NW 20:17:25 10° N visible
01 Mar 4.0 03:14:42 10° N 03:19:34 28° NE 03:24:25 10° ESE visible
01 Mar 2.3 04:58:17 10° NW 05:03:45 51° WSW 05:09:13 10° S visible
01 Mar 2.7 18:06:36 10° S 18:11:39 37° ESE 18:16:46 10° NE visible
01 Mar 3.7 19:50:28 10° WSW 19:55:34 36° NW 20:00:44 10° N visible
02 Mar 4.1 02:58:02 10° N 03:02:47 26° NE 03:07:31 10° ESE visible
02 Mar 2.2 04:41:31 10° NNW 04:47:03 55° WSW 04:52:34 10° S visible
02 Mar 3.6 19:33:37 10° SW 19:38:48 38° NW 19:44:02 10° NNE visible
03 Mar 4.2 02:41:22 10° N 02:45:59 25° NE 02:50:36 10° ESE visible
03 Mar 2.1 04:25:36 15° NW 04:30:20 60° WSW 04:35:54 10° S visible
03 Mar 3.5 19:16:46 10° SW 19:22:02 41° WNW 19:27:21 10° NNE visible
